This is the latest recevied weather packets stored in our database for station/object KQ4OSL. If no packets are shown the sender has not sent any weather packets the latest 10 day(s).
| Time | Temp. | Humidity | Pressure | Rain* | Wind** | Luminosity | Snow |
|---|---|---|---|---|---|---|---|
| 1787622026 | 22.22° C | 88% | 1018.7 hPa | 0 mm | - | 0 W/m² | - |
| 1787621725 | 22.22° C | 88% | 1018.8 hPa | 0 mm | - | 0 W/m² | - |
| 1787621420 | 22.22° C | 86% | 1018.5 hPa | 0 mm | - | 0 W/m² | - |
| 1787621117 | 22.22° C | 87% | 1018.5 hPa | 0 mm | - | 0 W/m² | - |
| 1787620813 | 22.22° C | 86% | 1018.7 hPa | 0 mm | - | 0 W/m² | - |
| 1787620507 | 22.78° C | 86% | 1018.5 hPa | 0 mm | - | 0 W/m² | - |
| 1787620204 | 22.78° C | 84% | 1018.6 hPa | 0 mm | - | 0 W/m² | - |
| 1787619899 | 22.78° C | 84% | 1018.4 hPa | 0 mm | - | 0 W/m² | - |
| 1787619598 | 22.78° C | 85% | 1018.5 hPa | 0 mm | - | 0 W/m² | - |
| 1787619294 | 22.78° C | 85% | 1018.4 hPa | 0 mm | - | 0 W/m² | - |
| 1787618994 | 22.78° C | 83% | 1018.2 hPa | 0 mm | - | 0 W/m² | - |
| 1787618689 | 23.33° C | 85% | 1018.1 hPa | 0 mm | - | 0 W/m² | - |
| 1787618386 | 23.33° C | 84% | 1018 hPa | 0 mm | - | 0 W/m² | - |
| 1787618082 | 23.33° C | 84% | 1018 hPa | 0 mm | - | 0 W/m² | - |
| 1787617777 | 23.89° C | 83% | 1018 hPa | 0 mm | - | 0 W/m² | - |
| 1787617477 | 23.89° C | 82% | 1017.8 hPa | 0 mm | - | 1 W/m² | - |
| 1787617171 | 24.44° C | 79% | 1017.8 hPa | 0 mm | - | 1 W/m² | - |
| 1787616866 | 24.44° C | 79% | 1017.5 hPa | 0 mm | - | 2 W/m² | - |
| 1787616565 | 25° C | 80% | 1017.6 hPa | 0 mm | - | 4 W/m² | - |
| 1787616264 | 25° C | 80% | 1017.4 hPa | 0 mm | - | 6 W/m² | - |
| 1787615963 | 25° C | 78% | 1017.4 hPa | 0 mm | - | 9 W/m² | - |
| 1787615658 | 26.11° C | 76% | 1017.6 hPa | 0 mm | - | 10 W/m² | - |
| 1787615353 | 27.22° C | 70% | 1017.3 hPa | 0 mm | - | 13 W/m² | - |
| 1787615049 | 27.78° C | 64% | 1017.2 hPa | 0 mm | - | 15 W/m² | - |
| 1787614745 | 27.78° C | 65% | 1017.2 hPa | 0 mm | - | 17 W/m² | - |
* Rain latest hour (hover to see other rain measurements)
** Current wind speed in m/s (hover to see current wind gust speed)